When you browse on this site, cookies collect data to enhance your experience and personalize the content and advertising you see.
Visit our Privacy Policy to learn more. By continuing to use the site, you agree to this use of cookies and data.
  • In United Kingdom
  • List of Countries
  • For 7 days
  • Water Temperature
  • Satellite Maps
  • Weather Map
  • Weather Widgets
  • user-avatar
    Login

    Hourly Weather Hrazdan

    Today, 23 May, Thursday

    Time Temperature Precipitation Wind Pressure Humidity
    00:00 +9°C° 0 mm 1 mps 613 mmHg 86%
    01:00 +9°C° 0 mm 1 mps 613 mmHg 84%
    02:00 +9°C° 0 mm 1 mps 613 mmHg 83%
    03:00 +7°C° 0 mm 2 mps 612 mmHg 81%
    04:00 +8°C° 0 mm 2 mps 612 mmHg 80%
    05:00 +9°C° 0 mm 2 mps 612 mmHg 80%
    06:00 +9°C° 0 mm 2 mps 612 mmHg 79%
    07:00 +12°C° 0 mm 2 mps 613 mmHg 72%
    08:00 +13°C° 0 mm 3 mps 613 mmHg 65%
    09:00 +15°C° 0 mm 4 mps 614 mmHg 60%
    10:00 +15°C° 0.2 mm 4 mps 614 mmHg 59%
    11:00 +15°C° 0.2 mm 4 mps 614 mmHg 59%
    12:00 +17°C° 0.2 mm 4 mps 614 mmHg 58%
    13:00 +17°C° 0.4 mm 4 mps 613 mmHg 60%
    14:00 +17°C° 0.4 mm 4 mps 613 mmHg 61%
    15:00 +17°C° 0.4 mm 4 mps 613 mmHg 63%
    16:00 +16°C° 0.6 mm 3 mps 613 mmHg 67%
    17:00 +14°C° 0.6 mm 3 mps 612 mmHg 72%
    18:00 +15°C° 0.6 mm 2 mps 612 mmHg 76%
    19:00 +14°C° 0.7 mm 2 mps 612 mmHg 79%
    20:00 +13°C° 0.7 mm 1 mps 612 mmHg 82%
    21:00 +12°C° 0.7 mm 1 mps 612 mmHg 85%
    22:00 +12°C° 0.3 mm 1 mps 612 mmHg 85%
    23:00 +11°C° 0.3 mm 1 mps 613 mmHg 85%

    Tomorrow, 24 May, Friday

    Time Temperature Precipitation Wind Pressure Humidity
    00:00 +10°C° 0.3 mm 2 mps 613 mmHg 85%
    01:00 +10°C° 0.3 mm 2 mps 612 mmHg 86%
    02:00 +10°C° 0.3 mm 2 mps 612 mmHg 86%
    03:00 +10°C° 0.3 mm 2 mps 612 mmHg 87%
    04:00 +10°C° 0.2 mm 2 mps 612 mmHg 86%
    05:00 +12°C° 0.2 mm 2 mps 612 mmHg 85%
    06:00 +12°C° 0.2 mm 2 mps 612 mmHg 84%
    07:00 +13°C° 0 mm 3 mps 613 mmHg 76%
    08:00 +14°C° 0 mm 3 mps 614 mmHg 68%
    09:00 +17°C° 0 mm 4 mps 614 mmHg 60%
    10:00 +18°C° 0.2 mm 4 mps 614 mmHg 59%
    11:00 +19°C° 0.2 mm 4 mps 614 mmHg 57%
    12:00 +20°C° 0.2 mm 5 mps 614 mmHg 56%
    13:00 +19°C° 1.2 mm 4 mps 614 mmHg 58%
    14:00 +19°C° 1.2 mm 4 mps 614 mmHg 59%
    15:00 +19°C° 1.2 mm 4 mps 613 mmHg 61%
    16:00 +18°C° 1.3 mm 3 mps 613 mmHg 66%
    17:00 +17°C° 1.3 mm 3 mps 613 mmHg 71%
    18:00 +16°C° 1.3 mm 2 mps 612 mmHg 76%
    19:00 +15°C° 0.3 mm 2 mps 613 mmHg 78%
    20:00 +13°C° 0.3 mm 2 mps 613 mmHg 79%
    21:00 +12°C° 0.3 mm 1 mps 613 mmHg 80%
    22:00 +12°C° 0.3 mm 1 mps 613 mmHg 78%
    23:00 +12°C° 0.3 mm 1 mps 614 mmHg 76%

    Day after tomorrow, 25 May, Saturday

    Time Temperature Precipitation Wind Pressure Humidity
    00:00 +13°C° 0.3 mm 1 mps 614 mmHg 74%
    01:00 +12°C° 0 mm 1 mps 614 mmHg 73%
    02:00 +12°C° 0 mm 1 mps 614 mmHg 71%
    03:00 +11°C° 0 mm 1 mps 613 mmHg 70%
    04:00 +12°C° 0 mm 2 mps 614 mmHg 67%
    05:00 +13°C° 0 mm 2 mps 614 mmHg 65%
    06:00 +13°C° 0 mm 2 mps 614 mmHg 63%
    07:00 +15°C° 0 mm 2 mps 615 mmHg 56%
    08:00 +18°C° 0 mm 3 mps 616 mmHg 49%
    09:00 +20°C° 0 mm 4 mps 616 mmHg 43%
    10:00 +21°C° 0 mm 4 mps 616 mmHg 41%
    11:00 +22°C° 0 mm 5 mps 616 mmHg 38%
    12:00 +23°C° 0 mm 6 mps 616 mmHg 36%
    13:00 +23°C° 0 mm 6 mps 616 mmHg 37%
    14:00 +23°C° 0 mm 6 mps 616 mmHg 38%
    15:00 +23°C° 0 mm 6 mps 615 mmHg 39%
    16:00 +22°C° 0 mm 5 mps 615 mmHg 45%
    17:00 +21°C° 0 mm 3 mps 614 mmHg 52%
    18:00 +20°C° 0 mm 2 mps 614 mmHg 58%
    19:00 +18°C° 0.4 mm 2 mps 613 mmHg 61%
    20:00 +16°C° 0.4 mm 2 mps 613 mmHg 64%
    21:00 +14°C° 0.4 mm 2 mps 613 mmHg 68%
    22:00 +13°C° 0.1 mm 2 mps 613 mmHg 63%
    23:00 +13°C° 0.1 mm 2 mps 612 mmHg 59%

    26 May, Sunday

    Time Temperature Precipitation Wind Pressure Humidity
    00:00 +13°C° 0.1 mm 2 mps 612 mmHg 55%
    01:00 +12°C° 0 mm 2 mps 612 mmHg 57%
    02:00 +12°C° 0 mm 1 mps 612 mmHg 60%
    03:00 +10°C° 0 mm 0 mps 611 mmHg 62%
    04:00 +12°C° 0.1 mm 1 mps 612 mmHg 61%
    05:00 +13°C° 0.1 mm 1 mps 612 mmHg 61%
    06:00 +14°C° 0.1 mm 1 mps 612 mmHg 61%
    07:00 +16°C° 0 mm 2 mps 613 mmHg 55%
    08:00 +18°C° 0 mm 2 mps 614 mmHg 49%
    09:00 +20°C° 0 mm 3 mps 614 mmHg 43%
    10:00 +21°C° 0 mm 3 mps 614 mmHg 42%
    11:00 +22°C° 0 mm 4 mps 614 mmHg 40%
    12:00 +22°C° 0 mm 5 mps 614 mmHg 39%
    13:00 +22°C° 0.1 mm 5 mps 614 mmHg 40%
    14:00 +22°C° 0.1 mm 5 mps 614 mmHg 41%
    15:00 +22°C° 0.1 mm 5 mps 614 mmHg 42%
    16:00 +21°C° 0.5 mm 4 mps 613 mmHg 49%
    17:00 +20°C° 0.5 mm 3 mps 613 mmHg 55%
    18:00 +19°C° 0.5 mm 2 mps 613 mmHg 61%
    19:00 +17°C° 0.8 mm 2 mps 613 mmHg 69%
    20:00 +14°C° 0.8 mm 2 mps 612 mmHg 76%
    21:00 +12°C° 0.8 mm 2 mps 612 mmHg 83%
    22:00 +10°C° 0.6 mm 2 mps 612 mmHg 86%
    23:00 +9°C° 0.6 mm 2 mps 612 mmHg 89%

    27 May, Monday

    Time Temperature Precipitation Wind Pressure Humidity
    00:00 +10°C° 0.6 mm 1 mps 612 mmHg 92%
    01:00 +9°C° 0.3 mm 1 mps 612 mmHg 92%
    02:00 +9°C° 0.3 mm 1 mps 612 mmHg 92%
    03:00 +9°C° 0.3 mm 1 mps 612 mmHg 92%
    04:00 +10°C° 0 mm 1 mps 613 mmHg 89%
    05:00 +10°C° 0 mm 1 mps 614 mmHg 86%
    06:00 +10°C° 0 mm 0 mps 614 mmHg 82%
    07:00 +13°C° 0 mm 1 mps 615 mmHg 74%
    08:00 +15°C° 0 mm 1 mps 616 mmHg 66%
    09:00 +18°C° 0 mm 1 mps 616 mmHg 58%
    10:00 +18°C° 0 mm 1 mps 616 mmHg 53%
    11:00 +18°C° 0 mm 2 mps 616 mmHg 48%
    12:00 +19°C° 0 mm 2 mps 616 mmHg 43%
    13:00 +19°C° 0.1 mm 2 mps 616 mmHg 43%
    14:00 +20°C° 0.1 mm 2 mps 616 mmHg 42%
    15:00 +20°C° 0.1 mm 2 mps 616 mmHg 41%
    16:00 +19°C° 0.1 mm 2 mps 616 mmHg 48%
    17:00 +18°C° 0.1 mm 2 mps 616 mmHg 55%
    18:00 +19°C° 0.1 mm 1 mps 616 mmHg 62%
    19:00 +16°C° 0.3 mm 2 mps 616 mmHg 69%
    20:00 +13°C° 0.3 mm 2 mps 615 mmHg 76%
    21:00 +10°C° 0.3 mm 2 mps 615 mmHg 84%
    22:00 +10°C° 0 mm 2 mps 615 mmHg 83%
    23:00 +9°C° 0 mm 2 mps 615 mmHg 83%

    28 May, Tuesday

    Time Temperature Precipitation Wind Pressure Humidity
    00:00 +9°C° 0 mm 2 mps 615 mmHg 83%
    01:00 +9°C° 0 mm 2 mps 615 mmHg 82%
    02:00 +8°C° 0 mm 2 mps 615 mmHg 82%
    03:00 +8°C° 0 mm 2 mps 615 mmHg 81%
    04:00 +9°C° 0 mm 2 mps 616 mmHg 80%
    05:00 +11°C° 0 mm 1 mps 616 mmHg 78%
    06:00 +11°C° 0 mm 1 mps 617 mmHg 77%
    07:00 +13°C° 0 mm 1 mps 617 mmHg 71%
    08:00 +15°C° 0 mm 1 mps 618 mmHg 65%
    09:00 +18°C° 0 mm 1 mps 619 mmHg 59%
    10:00 +18°C° 0 mm 2 mps 619 mmHg 57%
    11:00 +19°C° 0 mm 2 mps 619 mmHg 54%
    12:00 +20°C° 0 mm 2 mps 619 mmHg 52%
    13:00 +20°C° 0 mm 2 mps 618 mmHg 54%
    14:00 +21°C° 0 mm 2 mps 618 mmHg 55%
    15:00 +21°C° 0 mm 2 mps 618 mmHg 57%
    16:00 +20°C° 0.2 mm 2 mps 618 mmHg 63%
    17:00 +19°C° 0.2 mm 2 mps 617 mmHg 69%
    18:00 +18°C° 0.2 mm 2 mps 617 mmHg 75%
    19:00 +16°C° 0.1 mm 2 mps 617 mmHg 81%
    20:00 +15°C° 0.1 mm 2 mps 617 mmHg 87%
    21:00 +13°C° 0.1 mm 2 mps 617 mmHg 93%
    22:00 +12°C° 0 mm 2 mps 616 mmHg 93%
    23:00 +12°C° 0 mm 2 mps 616 mmHg 93%
    Show more